This is the latest recevied weather packets stored in our database for station/object WX2NJ. If no packets are shown the sender has not sent any weather packets the latest 10 day(s).
| Time | Temp. | Humidity | Pressure | Rain* | Wind** | Luminosity | Snow |
|---|---|---|---|---|---|---|---|
| 1777764975 | 11.67° C | 77% | 1014.1 hPa | 0 mm | - | 2 W/m² | - |
| 1777764673 | 11.67° C | 76% | 1014.1 hPa | 0 mm | - | 7 W/m² | - |
| 1777764369 | 12.22° C | 75% | 1014.1 hPa | 0 mm | - | 10 W/m² | - |
| 1777762250 | 12.78° C | 73% | 1013.9 hPa | 0 mm | - | 43 W/m² | - |
| 1777761946 | 12.78° C | 73% | 1014 hPa | 0 mm | - | 45 W/m² | - |
| 1777761643 | 12.78° C | 73% | 1014 hPa | 0 mm | - | 45 W/m² | - |
| 1777761341 | 12.78° C | 73% | 1014 hPa | 0 mm | - | 42 W/m² | - |
| 1777761039 | 12.78° C | 73% | 1013.9 hPa | 0 mm | - | 50 W/m² | - |
| 1777760736 | 12.78° C | 72% | 1013.8 hPa | 0 mm | - | 49 W/m² | - |
| 1777760432 | 12.78° C | 72% | 1013.9 hPa | 0 mm | - | 54 W/m² | - |
| 1777760127 | 12.78° C | 73% | 1013.9 hPa | 0 mm | - | 51 W/m² | - |
| 1777759825 | 12.78° C | 73% | 1014 hPa | 0 mm | - | 75 W/m² | - |
| 1777759521 | 12.78° C | 73% | 1013.8 hPa | 0 mm | - | 78 W/m² | - |
| 1777758612 | 12.78° C | 72% | 1013.8 hPa | 0 mm | - | 81 W/m² | - |
| 1777758007 | 13.33° C | 72% | 1013.8 hPa | 0 mm | - | 82 W/m² | - |
| 1777757703 | 13.33° C | 72% | 1013.9 hPa | 0 mm | - | 72 W/m² | - |
| 1777757401 | 12.78° C | 71% | 1014 hPa | 0 mm | - | 88 W/m² | - |
| 1777757099 | 13.33° C | 71% | 1013.8 hPa | 0 mm | - | 121 W/m² | - |
| 1777756796 | 12.78° C | 71% | 1013.6 hPa | 0 mm | - | 133 W/m² | - |
| 1777756492 | 12.78° C | 73% | 1013.7 hPa | 0 mm | - | 137 W/m² | - |
| 1777756190 | 12.78° C | 72% | 1013.7 hPa | 0 mm | - | 111 W/m² | - |
| 1777755886 | 12.78° C | 72% | 1013.6 hPa | 0 mm | - | 116 W/m² | - |
| 1777754372 | 12.78° C | 71% | 1013.3 hPa | 0 mm | - | 128 W/m² | - |
| 1777754069 | 12.78° C | 71% | 1013.5 hPa | 0 mm | - | 142 W/m² | - |
| 1777753764 | 12.78° C | 71% | 1013.6 hPa | 0 mm | - | 111 W/m² | - |
* Rain latest hour (hover to see other rain measurements)
** Current wind speed in m/s (hover to see current wind gust speed)